Estació meteorològica de Bagergue (Vall d'Aran, Vall d'Aran)

Consulta les dades en temps real de l'estació meteorològica de Bagergue





Hora UTC 21:10
Temperatura 14.6 ºC
Humitat 86.0 %
Pressió 1026.0 hPa
Pluja 0.0 mm
Velocitat vent 3.2 km/h
Direcció vent N

Webcam

Dades diàries 2026-09-01



Hora UTC (hivern +1h; estiu +2h)
Temperatura (ºC) Humitat (%) Pressió (hPa) Velocitat vent (km/h) Precipitació (mm)
Hora UTC Aire Humitat Pressió Vel. Dir. Vel. Max Dir. Intent. màx 5 min.
00:05 12.2 89.0 1027.7 4.8 N 4.8 0.0
00:10 11.9 89.0 1027.5 6.4 N 6.4 0.0
00:15 11.6 89.0 1027.5 3.2 NNW 6.4 0.0
00:20 11.5 89.0 1027.5 3.2 NNW 6.4 0.0
00:25 11.2 90.0 1027.3 3.2 N 4.8 0.0
00:30 11.1 90.0 1027.4 1.6 N 4.8 0.0
00:35 11.1 91.0 1027.3 1.6 ENE 3.2 0.0
00:40 11.1 91.0 1027.2 0.0 NNE 3.2 0.0
00:45 11.0 91.0 1027.2 4.8 NW 4.8 0.0
00:50 10.7 91.0 1027.1 3.2 NNW 8.0 0.0
00:55 10.6 92.0 1027.0 1.6 NNW 8.0 0.0
01:00 10.7 92.0 1027.0 3.2 N 3.2 0.0
01:05 10.5 92.0 1026.9 4.8 NNW 6.4 0.0
01:10 10.5 92.0 1026.8 3.2 NNW 6.4 0.0
01:15 10.6 93.0 1026.8 1.6 N 6.4 0.0
01:20 10.4 92.0 1026.7 3.2 NNW 4.8 0.0
01:25 10.3 93.0 1026.7 3.2 N 4.8 0.0
01:30 10.5 93.0 1026.7 4.8 NNW 6.4 0.0
01:35 10.5 93.0 1026.7 3.2 N 6.4 0.0
01:40 10.7 93.0 1026.7 3.2 N 6.4 0.0
01:45 10.5 92.0 1026.7 4.8 N 6.4 0.0
01:50 10.7 93.0 1026.6 3.2 N 4.8 0.0
01:55 10.6 92.0 1026.5 6.4 NNW 6.4 0.0
02:00 10.7 92.0 1026.6 3.2 NNW 6.4 0.0
02:05 10.7 92.0 1026.5 3.2 N 6.4 0.0
02:10 10.7 92.0 1026.5 8.0 NNW 8.0 0.0
02:15 11.1 91.0 1026.4 3.2 NNW 8.0 0.0
02:20 11.1 91.0 1026.4 4.8 N 8.0 0.0
02:25 11.4 89.0 1026.3 6.4 NW 6.4 0.0
02:30 11.3 90.0 1026.3 1.6 N 8.0 0.0
02:35 11.4 89.0 1026.2 4.8 N 8.0 0.0
02:40 11.5 88.0 1026.1 4.8 N 6.4 0.0
02:45 11.8 86.0 1026.0 3.2 N 8.0 0.0
02:50 11.6 86.0 1025.9 9.7 N 9.7 0.0
02:55 12.0 86.0 1025.9 4.8 N 9.7 0.0
03:00 12.2 84.0 1025.9 1.6 N 9.7 0.0
03:05 12.5 83.0 1025.8 0.0 NNE 4.8 0.0
03:10 12.9 82.0 1025.8 8.0 N 8.0 0.0
03:15 12.8 82.0 1025.8 4.8 NNW 8.0 0.0
03:20 12.6 82.0 1025.8 3.2 N 8.0 0.0
03:25 12.5 82.0 1025.8 3.2 N 6.4 0.0
03:30 12.6 82.0 1025.9 1.6 N 4.8 0.0
03:35 12.7 81.0 1025.9 1.6 NNE 3.2 0.0
03:40 12.8 81.0 1025.9 1.6 N 4.8 0.0
03:45 12.5 81.0 1025.9 4.8 NNW 4.8 0.0
03:50 12.5 81.0 1026.0 0.0 NNE 4.8 0.0
03:55 12.6 81.0 1026.0 3.2 NNE 3.2 0.0
04:00 12.6 81.0 1025.9 0.0 NE 3.2 0.0
04:05 12.6 80.0 1026.0 0.0 NNE 3.2 0.0
04:10 12.6 82.0 1026.1 1.6 SE 3.2 0.0
04:15 12.4 82.0 1026.0 1.6 NNE 3.2 0.0
04:20 12.2 82.0 1026.1 0.0 N 3.2 0.0
04:25 12.2 81.0 1026.1 4.8 N 6.4 0.0
04:30 12.2 82.0 1026.0 4.8 N 6.4 0.0
04:35 12.1 82.0 1026.1 6.4 N 6.4 0.0
04:40 12.2 82.0 1026.1 3.2 NNE 6.4 0.0
04:45 12.3 81.0 1026.1 1.6 NNE 4.8 0.0
04:50 12.4 80.0 1026.2 1.6 N 4.8 0.0
04:55 12.4 80.0 1026.1 3.2 N 4.8 0.0
05:00 12.4 81.0 1026.0 6.4 NNE 6.4 0.0
05:05 12.5 80.0 1026.1 1.6 N 6.4 0.0
05:10 12.5 79.0 1026.0 4.8 N 4.8 0.0
05:15 12.6 80.0 1026.1 3.2 N 6.4 0.0
05:20 12.6 79.0 1026.0 4.8 N 6.4 0.0
05:25 12.7 79.0 1026.0 6.4 N 8.0 0.0
05:30 12.6 79.0 1025.9 4.8 N 8.0 0.0
05:35 12.8 78.0 1026.0 4.8 N 8.0 0.0
05:40 12.8 78.0 1026.0 4.8 N 6.4 0.0
05:45 12.8 79.0 1026.1 4.8 N 6.4 0.0
05:50 12.9 78.0 1026.1 4.8 NNW 6.4 0.0
05:55 13.1 78.0 1026.1 4.8 NNW 8.0 0.0
06:00 13.2 78.0 1026.1 4.8 N 8.0 0.0
06:05 13.3 77.0 1026.2 8.0 N 8.0 0.0
06:10 13.6 76.0 1026.1 1.6 N 8.0 0.0
06:15 13.6 77.0 1026.1 4.8 N 6.4 0.0
06:20 13.6 77.0 1026.1 6.4 N 6.4 0.0
06:25 13.6 77.0 1026.1 4.8 N 6.4 0.0
06:30 13.7 77.0 1026.0 3.2 NNW 6.4 0.0
06:35 13.5 78.0 1026.0 4.8 N 6.4 0.0
06:40 13.6 77.0 1026.0 3.2 N 6.4 0.0
06:45 13.8 77.0 1026.0 4.8 N 6.4 0.0
06:50 13.9 77.0 1026.0 4.8 NNW 6.4 0.0
06:55 13.5 79.0 1026.0 4.8 NNW 6.4 0.0
07:00 13.5 80.0 1026.0 4.8 N 8.0 0.0
07:05 13.7 79.0 1026.1 3.2 N 8.0 0.0
07:10 0.0
07:15 14.2 78.0 1026.1 0.0 NNE 6.4 0.0
07:20 14.6 76.0 1026.0 0.0 NNW 4.8 0.0
07:25 14.9 78.0 1026.0 3.2 NNW 4.8 0.0
07:30 15.3 77.0 1026.0 3.2 N 4.8 0.0
07:35 15.8 76.0 1025.9 0.0 N 4.8 0.0
07:40 16.3 75.0 1025.9 3.2 NW 4.8 0.0
07:45 16.6 74.0 1025.9 0.0 NNW 4.8 0.0
07:50 16.9 76.0 1025.9 3.2 NNW 3.2 0.0
07:55 17.2 74.0 1025.9 1.6 NNW 3.2 0.0
08:00 17.4 71.0 1025.8 0.0 NNW 3.2 0.0
08:05 17.8 69.0 1025.8 1.6 NW 3.2 0.0
08:10 18.3 68.0 1025.8 0.0 NW 3.2 0.0
08:15 19.1 66.0 1025.8 1.6 SSE 1.6 0.0
08:20 19.6 60.0 1025.8 0.0 SSE 3.2 0.0
08:25 20.1 58.0 1025.8 1.6 SSE 3.2 0.0
08:30 20.4 58.0 1025.8 1.6 SSE 4.8 0.0
08:35 20.7 59.0 1025.8 1.6 SSE 4.8 0.0
08:40 20.7 59.0 1025.8 0.0 S 3.2 0.0
08:45 21.0 57.0 1025.7 1.6 SSE 3.2 0.0
08:50 21.2 58.0 1025.7 1.6 ESE 4.8 0.0
08:55 21.3 58.0 1025.8 0.0 SSE 3.2 0.0
09:00 21.4 59.0 1025.9 4.8 SE 6.4 0.0
09:05 21.5 57.0 1025.8 0.0 SSE 6.4 0.0
09:10 21.6 55.0 1025.8 3.2 SE 6.4 0.0
09:15 21.7 56.0 1025.8 1.6 SE 4.8 0.0
09:20 21.8 56.0 1025.8 1.6 S 4.8 0.0
09:25 21.7 59.0 1025.8 0.0 SSW 3.2 0.0
09:30 21.6 63.0 1025.8 0.0 SW 3.2 0.0
09:35 21.7 60.0 1025.6 1.6 SE 3.2 0.0
09:40 22.1 58.0 1025.5 1.6 SSE 4.8 0.0
09:45 22.6 62.0 1025.5 4.8 NW 4.8 0.0
09:50 22.8 66.0 1025.5 0.0 WNW 4.8 0.0
09:55 23.3 56.0 1025.4 3.2 WSW 4.8 0.0
10:00 23.7 52.0 1025.2 0.0 SSW 4.8 0.0
10:05 24.1 51.0 1025.2 3.2 SW 6.4 0.0
10:10 23.9 54.0 1025.2 3.2 ESE 6.4 0.0
10:15 23.7 55.0 1025.2 4.8 SE 4.8 0.0
10:20 23.7 53.0 1025.1 4.8 SSE 4.8 0.0
10:25 23.8 57.0 1025.1 1.6 SSW 6.4 0.0
10:30 23.4 54.0 1025.2 4.8 SE 8.0 0.0
10:35 22.9 55.0 1025.0 3.2 SE 8.0 0.0
10:40 23.0 57.0 1024.9 1.6 SE 8.0 0.0
10:45 23.2 55.0 1024.8 3.2 SE 6.4 0.0
10:50 23.3 54.0 1024.8 0.0 NE 6.4 0.0
10:55 23.1 59.0 1024.8 4.8 SE 6.4 0.0
11:00 22.5 62.0 1024.8 3.2 SE 6.4 0.0
11:05 22.3 57.0 1024.6 1.6 S 6.4 0.0
11:10 22.9 62.0 1024.6 4.8 ESE 8.0 0.0
11:15 22.5 61.0 1024.6 3.2 SE 9.7 0.0
11:20 21.8 63.0 1024.6 3.2 SE 9.7 0.0
11:25 21.1 65.0 1024.7 3.2 ENE 9.7 0.0
11:30 20.6 67.0 1024.7 1.6 ESE 9.7 0.0
11:35 20.7 69.0 1024.4 3.2 SW 9.7 0.0
11:40 20.7 68.0 1024.5 4.8 SE 9.7 0.0
11:45 20.6 67.0 1024.5 4.8 SE 12.9 0.0
11:50 20.6 67.0 1024.4 4.8 ESE 12.9 0.0
11:55 21.0 65.0 1024.4 4.8 SE 6.4 0.0
12:00 21.3 62.0 1024.4 0.0 S 6.4 0.0
12:05 22.0 63.0 1024.3 1.6 SSE 6.4 0.0
12:10 22.4 65.0 1024.3 1.6 ESE 8.0 0.0
12:15 22.6 59.0 1024.2 3.2 SSE 8.0 0.0
12:20 22.8 63.0 1024.2 3.2 ESE 6.4 0.0
12:25 23.1 62.0 1024.1 1.6 SSE 6.4 0.0
12:30 23.4 61.0 1024.1 1.6 ENE 6.4 0.0
12:35 23.6 59.0 1024.0 4.8 SE 6.4 0.0
12:40 23.4 59.0 1024.1 1.6 SE 6.4 0.0
12:45 23.2 57.0 1024.0 0.0 SW 6.4 0.0
12:50 23.3 55.0 1023.9 4.8 SSE 6.4 0.0
12:55 23.6 58.0 1023.9 1.6 SE 6.4 0.0
13:00 24.3 56.0 1023.7 3.2 S 8.0 0.0
13:05 24.7 47.0 1023.8 8.0 SE 11.3 0.0
13:10 25.1 43.0 1023.7 4.8 ESE 12.9 0.0
13:15 25.7 43.0 1023.6 4.8 SSE 12.9 0.0
13:20 25.9 40.0 1023.7 4.8 WSW 14.5 0.0
13:25 25.3 38.0 1023.6 4.8 SSE 16.1 0.0
13:30 25.3 41.0 1023.6 3.2 WNW 12.9 0.0
13:35 25.1 42.0 1023.7 9.7 SE 12.9 0.0
13:40 25.0 41.0 1023.6 8.0 E 20.9 0.0
13:45 25.2 43.0 1023.7 8.0 WSW 20.9 0.0
13:50 25.4 42.0 1023.6 8.0 WSW 17.7 0.0
13:55 25.2 41.0 1023.5 9.7 SE 17.7 0.0
14:00 24.9 43.0 1023.5 3.2 WNW 17.7 0.0
14:05 24.7 45.0 1023.4 11.3 ESE 17.7 0.0
14:10 24.9 46.0 1023.4 11.3 ESE 19.3 0.0
14:15 25.2 45.0 1023.5 14.5 ESE 19.3 0.0
14:20 25.3 43.0 1023.3 6.4 SE 17.7 0.0
14:25 25.4 46.0 1023.3 9.7 SE 17.7 0.0
14:30 25.6 42.0 1023.3 9.7 SSE 14.5 0.0
14:35 25.7 44.0 1023.4 3.2 ESE 14.5 0.0
14:40 25.4 44.0 1023.4 4.8 SE 14.5 0.0
14:45 25.4 43.0 1023.4 3.2 ESE 14.5 0.0
14:50 25.6 44.0 1023.3 3.2 WNW 11.3 0.0
14:55 25.7 46.0 1023.4 1.6 SW 11.3 0.0
15:00 25.5 44.0 1023.3 9.7 WSW 12.9 0.0
15:05 25.4 46.0 1023.3 1.6 E 20.9 0.0
15:10 25.3 46.0 1023.3 4.8 WSW 20.9 0.0
15:15 25.3 45.0 1023.4 1.6 S 17.7 0.0
15:20 25.2 46.0 1023.2 8.0 SE 17.7 0.0
15:25 25.2 47.0 1023.1 4.8 ESE 14.5 0.0
15:30 25.1 48.0 1023.1 6.4 SE 16.1 0.0
15:35 25.0 50.0 1023.0 1.6 SSE 16.1 0.0
15:40 24.8 49.0 1023.0 9.7 SSE 17.7 0.0
15:45 24.6 53.0 1023.0 8.0 E 16.1 0.0
15:50 24.2 55.0 1023.0 8.0 SSE 16.1 0.0
15:55 23.9 55.0 1023.0 8.0 SE 16.1 0.0
16:00 23.5 57.0 1023.0 4.8 SE 16.1 0.0
16:05 23.2 59.0 1023.1 9.7 SE 16.1 0.0
16:10 23.1 59.0 1023.1 1.6 SSE 14.5 0.0
16:15 23.1 59.0 1023.1 9.7 E 12.9 0.0
16:20 22.9 59.0 1023.1 6.4 ESE 16.1 0.0
16:25 22.6 59.0 1023.1 11.3 E 20.9 0.0
16:30 22.2 62.0 1023.1 3.2 E 20.9 0.0
16:35 22.0 62.0 1023.0 12.9 SE 25.7 0.0
16:40 21.8 61.0 1023.1 6.4 ENE 25.7 0.0
16:45 21.7 61.0 1023.1 8.0 ESE 19.3 0.0
16:50 21.6 62.0 1023.1 11.3 SE 19.3 0.0
16:55 21.4 63.0 1023.1 14.5 E 19.3 0.0
17:00 21.3 64.0 1023.2 8.0 SE 20.9 0.0
17:05 21.1 64.0 1023.3 11.3 SE 19.3 0.0
17:10 20.9 65.0 1023.2 9.7 S 19.3 0.0
17:15 20.8 66.0 1023.3 11.3 E 19.3 0.0
17:20 20.7 66.0 1023.4 6.4 SSE 16.1 0.0
17:25 20.5 67.0 1023.4 9.7 SE 14.5 0.0
17:30 20.3 68.0 1023.5 4.8 SE 16.1 0.0
17:35 20.2 69.0 1023.5 8.0 SE 16.1 0.0
17:40 19.9 69.0 1023.5 8.0 E 14.5 0.0
17:45 19.8 70.0 1023.5 6.4 SSE 16.1 0.0
17:50 19.5 71.0 1023.7 6.4 SE 16.1 0.0
17:55 19.4 71.0 1023.7 3.2 SSE 9.7 0.0
18:00 19.2 72.0 1023.8 1.6 SE 8.0 0.0
18:05 19.1 73.0 1023.8 6.4 SE 9.7 0.0
18:10 18.8 73.0 1023.9 1.6 SSE 9.7 0.0
18:15 18.6 74.0 1024.0 4.8 SE 9.7 0.0
18:20 18.4 75.0 1024.0 0.0 ENE 6.4 0.0
18:25 18.2 75.0 1024.0 1.6 SSE 3.2 0.0
18:30 18.1 76.0 1024.0 0.0 ESE 3.2 0.0
18:35 17.8 77.0 1024.0 0.0 NNE 3.2 0.0
18:40 17.6 77.0 1024.2 0.0 NNE 1.6 0.0
18:45 17.3 79.0 1024.2 0.0 NNE 0.0 0.0
18:50 17.2 79.0 1024.3 0.0 ESE 0.0 0.0
18:55 16.9 80.0 1024.4 0.0 NE 0.0 0.0
19:00 16.8 80.0 1024.6 0.0 N 0.0 0.0
19:05 16.6 81.0 1024.6 0.0 N 0.0 0.0
19:10 16.4 81.0 1024.7 0.0 ENE 0.0 0.0
19:15 16.4 81.0 1024.8 3.2 NW 3.2 0.0
19:20 16.0 82.0 1024.8 3.2 NW 4.8 0.0
19:25 15.8 83.0 1024.9 1.6 N 4.8 0.0
19:30 15.6 84.0 1025.0 3.2 N 6.4 0.0
19:35 15.6 84.0 1025.1 1.6 N 6.4 0.0
19:40 15.4 83.0 1025.2 1.6 NW 3.2 0.0
19:45 15.1 85.0 1025.3 1.6 NW 3.2 0.0
19:50 15.1 85.0 1025.4 0.0 NW 3.2 0.0
19:55 15.2 85.0 1025.6 1.6 NW 3.2 0.0
20:00 15.1 85.0 1025.6 1.6 N 3.2 0.0
20:05 15.1 85.0 1025.7 4.8 N 4.8 0.0
20:10 15.1 85.0 1025.7 3.2 N 6.4 0.0
20:15 14.9 86.0 1025.9 3.2 NNW 4.8 0.0
20:20 14.7 86.0 1025.9 3.2 NNW 4.8 0.0
20:25 14.7 87.0 1026.0 3.2 NNW 4.8 0.0
20:30 14.6 87.0 1026.0 1.6 N 4.8 0.0
20:35 14.7 87.0 1026.0 3.2 N 4.8 0.0
20:40 14.7 87.0 1026.1 3.2 NNW 3.2 0.0
20:45 14.8 87.0 1026.1 1.6 N 3.2 0.0
20:50 14.8 86.0 1026.1 3.2 N 3.2 0.0
20:55 14.7 86.0 1026.1 3.2 N 3.2 0.0
21:00 14.7 86.0 1026.1 1.6 N 4.8 0.0
21:05 14.7 86.0 1026.1 1.6 NE 4.8 0.0
21:10 14.6 86.0 1026.0 3.2 N 4.8 0.0
Màxima 25.9 93.0 1027.7 14.5 E 25.7 0.0
Mínima 10.3 38.0 1023.0
Total 0.0